Voltar ao catálogo

ATLAS 5 CENTAUR DEB

LostHEO
NORAD 43957·DEBRIS·🇺🇸 United States

Lançado Sep 17, 2014 de Cape Canaveral Space Force Station

Loading…

Próximas Passagens (próximas 24 horas)

TLE

ObsoletoSource: Space-Track

Época: Nov 2, 2023, 04:54 UTC

1 43957U 14055L   23306.20455341 -.00000089  00000-0  00000+0 0  9998
2 43957  20.9516 235.9615 4959704  13.8642 355.8531  1.90006745 35859

Acompanhe ATLAS 5 CENTAUR DEB em tempo real com AllMySat

Download on the App Store